Date String (YYYY-MM-DD hh:mm:ss) UTC,Instrument flags,Ambient pressure (hPa),Sample flow (lpm),Bypass flow (lpm),Sample temperature (°C),Ambient temperature (°C),ASC tube jacket temperature (°C),LED temperature (°C),Box temperature (°C),Sample RH (%),Span deviation,Mass concentration (μg/m³),Mass concentration (μg/m³),Mass concentration (μg/m³)
DateTimeUTC,F1_M11,P_M11,Q1_M11,Q2_M11,T1_M11,T2_M11,T3_M11,T4_M11,T5_M11,U1_M11,ZSPAN_M11,X0_M11,X2_M11,X1_M11
2023-01-18 14:00:00,,0814.4,5.00,0.00,22.4,20.8,00.0,31.2,24.1,14.6,0000.0,0002.56,0002.93,0002.92
2023-01-18 14:01:00,,0814.3,5.00,0.00,22.4,20.8,00.0,31.2,24.1,14.6,0000.0,0002.57,0002.95,0002.94
2023-01-18 14:02:00,,0814.3,5.00,0.00,22.4,20.7,00.0,31.1,24.1,14.6,0000.0,0002.59,0002.96,0002.95
2023-01-18 14:03:00,,0814.3,5.01,0.00,22.4,20.7,00.0,31.1,24.0,14.6,0000.0,0002.61,0002.98,0002.96
2023-01-18 14:04:00,,0814.4,5.00,0.00,22.3,20.6,00.0,31.1,24.0,14.7,0000.0,0002.73,0002.98,0002.97
2023-01-18 14:05:00,,0814.3,5.01,0.00,22.3,20.7,00.0,31.1,24.0,14.7,0000.0,0002.80,0003.00,0002.99
2023-01-18 14:06:00,,0814.3,4.99,0.00,22.4,21.5,00.0,31.1,24.2,14.7,0000.0,0002.80,0003.02,0003.01
2023-01-18 14:07:00,,0814.4,5.00,0.00,22.5,22.4,00.0,31.1,24.4,14.6,0000.0,0002.81,0003.03,0003.01
2023-01-18 14:08:00,,0814.5,4.99,0.00,22.5,22.5,00.0,31.1,24.5,14.5,0000.0,0002.81,0003.04,0003.02
2023-01-18 14:09:00,,0814.2,5.00,0.00,22.6,22.1,00.0,31.2,24.4,14.5,0000.0,0002.82,0003.06,0003.04
2023-01-18 14:10:00,,0814.4,5.01,0.00,22.6,21.7,00.0,31.2,24.4,14.5,0000.0,0002.83,0003.07,0003.06
2023-01-18 14:11:00,,0814.5,4.99,0.00,22.5,21.4,00.0,31.2,24.3,14.5,0000.0,0002.86,0003.10,0003.08
2023-01-18 14:12:00,,0814.4,5.00,0.00,22.5,21.2,00.0,31.2,24.2,14.6,0000.0,0002.91,0003.12,0003.10
2023-01-18 14:13:00,,0814.2,4.99,0.00,22.5,21.1,00.0,31.2,24.2,14.6,0000.0,0002.94,0003.13,0003.12
2023-01-18 14:14:00,,0814.2,5.00,0.00,22.5,21.0,00.0,31.2,24.2,14.6,0000.0,0002.99,0003.15,0003.13
2023-01-18 14:15:00,,0814.4,5.01,0.00,22.5,20.9,00.0,31.2,24.2,14.7,0000.0,0002.94,0003.16,0003.14
2023-01-18 14:16:00,,0814.3,5.00,0.00,22.4,20.8,00.0,31.2,24.1,14.7,0000.0,0002.90,0003.17,0003.15
2023-01-18 14:17:00,,0814.4,4.99,0.00,22.4,20.7,00.0,31.2,24.1,14.7,0000.0,0002.92,0003.18,0003.16
2023-01-18 14:18:00,,0814.3,5.01,0.00,22.4,20.7,00.0,31.2,24.1,14.7,0000.0,0002.94,0003.20,0003.17
2023-01-18 14:19:00,,0814.4,4.99,0.00,22.4,20.6,00.0,31.2,24.0,14.7,0000.0,0002.96,0003.21,0003.18
2023-01-18 14:20:00,,0814.4,5.00,0.00,22.3,20.6,00.0,31.2,24.0,14.8,0000.0,0002.99,0003.22,0003.19
2023-01-18 14:21:00,,0814.4,5.00,0.00,22.3,21.0,00.0,31.1,24.1,14.8,0000.0,0002.99,0003.22,0003.19
2023-01-18 14:22:00,,0814.4,5.01,0.00,22.4,22.0,00.0,31.1,24.3,14.7,0000.0,0002.98,0003.22,0003.20
2023-01-18 14:23:00,,0814.4,5.00,0.00,22.5,22.9,00.0,31.2,24.5,14.7,0000.0,0002.94,0003.22,0003.19
2023-01-18 14:24:00,,0814.4,4.99,0.00,22.6,22.8,00.0,31.2,24.6,14.6,0000.0,0002.97,0003.22,0003.19
2023-01-18 14:25:00,,0814.4,4.99,0.00,22.6,22.4,00.0,31.2,24.5,14.6,0000.0,0002.93,0003.21,0003.19
2023-01-18 14:26:00,,0814.4,4.99,0.00,22.6,22.0,00.0,31.3,24.5,14.6,0000.0,0002.90,0003.21,0003.19
2023-01-18 14:27:00,,0814.5,5.00,0.00,22.6,21.6,00.0,31.3,24.4,14.6,0000.0,0002.88,0003.20,0003.19
2023-01-18 14:28:00,,0814.5,5.01,0.00,22.6,21.4,00.0,31.3,24.3,14.6,0000.0,0002.87,0003.20,0003.18
2023-01-18 14:29:00,,0814.4,5.02,0.00,22.6,21.2,00.0,31.3,24.3,14.7,0000.0,0002.85,0003.19,0003.17
2023-01-18 14:30:00,,0814.5,5.00,0.00,22.5,21.0,00.0,31.3,24.2,14.7,0000.0,0002.85,0003.18,0003.16
2023-01-18 14:31:00,,0814.6,4.98,0.00,22.5,20.8,00.0,31.3,24.2,14.7,0000.0,0002.81,0003.16,0003.14
2023-01-18 14:32:00,,0814.7,5.01,0.00,22.5,20.8,00.0,31.3,24.2,14.7,0000.0,0002.85,0003.14,0003.11
2023-01-18 14:33:00,,0814.7,4.99,0.00,22.5,20.7,00.0,31.3,24.1,14.7,0000.0,0002.81,0003.10,0003.05
2023-01-18 14:34:00,,0814.6,4.99,0.00,22.4,20.6,00.0,31.2,24.1,14.8,0000.0,0002.79,0003.06,0003.02
2023-01-18 14:35:00,,0814.6,4.99,0.00,22.4,20.6,00.0,31.2,24.1,14.8,0000.0,0002.71,0003.01,0002.97
2023-01-18 14:36:00,,0814.6,5.01,0.00,22.4,20.5,00.0,31.2,24.0,14.8,0000.0,0002.66,0002.97,0002.93
2023-01-18 14:37:00,,0814.6,5.01,0.00,22.3,20.5,00.0,31.2,24.0,14.8,0000.0,0002.61,0002.91,0002.87
2023-01-18 14:38:00,,0815.0,4.99,0.00,22.3,20.5,00.0,31.2,24.0,14.8,0000.0,0002.55,0002.84,0002.81
2023-01-18 14:39:00,,0814.9,5.00,0.00,22.3,20.4,00.0,31.1,24.0,14.8,0000.0,0002.50,0002.77,0002.74
2023-01-18 14:40:00,,0815.0,5.03,0.00,22.3,20.7,00.0,31.1,24.0,14.8,0000.0,0002.45,0002.71,0002.68
2023-01-18 14:41:00,,0814.9,5.01,0.00,22.4,21.7,00.0,31.1,24.2,14.8,0000.0,0002.38,0002.64,0002.62
2023-01-18 14:42:00,,0815.1,5.01,0.00,22.5,22.7,00.0,31.1,24.4,14.7,0000.0,0002.33,0002.58,0002.57
2023-01-18 14:43:00,,0815.1,4.99,0.00,22.6,22.8,00.0,31.2,24.5,14.6,0000.0,0002.22,0002.53,0002.53
2023-01-18 14:44:00,,0815.1,4.99,0.00,22.6,22.4,00.0,31.2,24.5,14.6,0000.0,0002.18,0002.50,0002.50
2023-01-18 14:45:00,,0815.0,5.02,0.00,22.6,22.0,00.0,31.2,24.4,14.6,0000.0,0002.15,0002.46,0002.46
2023-01-18 14:46:00,,0815.1,5.02,0.00,22.6,21.6,00.0,31.2,24.4,14.6,0000.0,0002.14,0002.44,0002.43
2023-01-18 14:47:00,,0815.1,4.99,0.00,22.6,21.4,00.0,31.3,24.3,14.6,0000.0,0002.12,0002.40,0002.39
2023-01-18 14:48:00,,0814.9,5.04,0.00,22.5,21.2,00.0,31.3,24.3,14.6,0000.0,0002.10,0002.37,0002.36
2023-01-18 14:49:00,,0815.0,5.00,0.00,22.5,21.1,00.0,31.3,24.3,14.6,0000.0,0002.10,0002.35,0002.34
2023-01-18 14:50:00,,0815.1,5.00,0.00,22.5,20.9,00.0,31.3,24.2,14.6,0000.0,0002.10,0002.34,0002.32
2023-01-18 14:51:00,,0815.0,5.01,0.00,22.5,20.8,00.0,31.2,24.2,14.6,0000.0,0002.11,0002.33,0002.30
2023-01-18 14:52:00,,0815.1,5.00,0.00,22.4,20.8,00.0,31.2,24.1,14.6,0000.0,0002.10,0002.31,0002.29
2023-01-18 14:53:00,,0815.1,4.99,0.00,22.4,20.7,00.0,31.2,24.1,14.6,0000.0,0002.11,0002.31,0002.29
2023-01-18 14:54:00,,0815.2,5.00,0.00,22.4,20.7,00.0,31.2,24.1,14.7,0000.0,0002.16,0002.32,0002.29
2023-01-18 14:55:00,,0814.8,5.00,0.00,22.4,20.7,00.0,31.2,24.1,14.7,0000.0,0002.18,0002.32,0002.28
2023-01-18 14:56:00,,0814.9,5.01,0.00,22.4,20.6,00.0,31.2,24.1,14.7,0000.0,0002.18,0002.31,0002.27
2023-01-18 14:57:00,,0814.7,4.99,0.00,22.3,20.6,00.0,31.2,24.0,14.7,0000.0,0002.19,0002.29,0002.25
2023-01-18 14:58:00,,0814.8,4.99,0.00,22.3,20.6,00.0,31.2,24.0,14.7,0000.0,0002.18,0002.27,0002.23
2023-01-18 14:59:00,,0814.7,5.02,0.00,22.3,20.6,00.0,31.2,24.0,14.7,0000.0,0002.19,0002.27,0002.22
